www.pogodaiklimat.ru

Погода и климат >> Архив погоды >> Норвегия >> Воссеванген


ПОГОДА в Воссевангене

  • Прогноз погоды в Воссевангене
  • Монитор погоды в Воссевангене

АРХИВ ПОГОДЫ в Воссевангене

Время (UTC), дата Ветер
(напр.,м/с)
 
Видим.   Явления Облачность Т
(С)
Тd
(С)
f
(%)
Тe
(С)
Тes
(С)
Комфортность P
(гПа)
Po
(гПа)
Тmin
(С)
Tmax
(С)
R
(мм)
R24
(мм)
S
(см)
01 10.09 В 1-1
{2}
н/о н/о +8.9 +8.9 100 +8 +8 1016.8 1010.2
02 10.09 В 1-1
{1}
н/о н/о +8.8 +8.8 100 +8 +8 1016.3 1009.7
03 10.09 В 1-1
{1}
н/о н/о +9.0 +9.0 100 +8 +8 1016.0 1009.4
04 10.09 СВ 1-1
{2}
н/о н/о +9.4 +9.4 100 +9 +9 1016.1 1009.5
05 10.09 штиль 0-1
{1}
н/о н/о +9.1 +9.1 100 +8 +8 1016.2 1009.6
06 10.09 штиль 0-1
{2}
н/о н/о +9.5 +9.5 100 +9 +9 1016.0 1009.4 +8.7 +12.0 0.6
07 10.09 штиль 0-1
{1}
н/о н/о +10.1 +10.1 100 +9 +9 1016.0 1009.4
08 10.09 Ю 1-1
{1}
н/о н/о +10.7 +10.6 99 +10 +10 1015.6 1009.0
09 10.09 З 1-2
{2}
н/о н/о +11.7 +10.6 93 +11 +11 1015.2 1008.7
10 10.09 ЮЗ 1-1
{2}
н/о н/о +13.4 +11.6 89 +14 +14 1014.6 1008.2
11 10.09 З 1-2
{2}
н/о н/о +13.8 +10.6 81 +14 +14 1014.1 1007.7
12 10.09 штиль 0-1
{2}
н/о н/о +15.6 +12.2 80 +15 +15 1013.5 1007.1 0.4
13 10.09 З 1-2
{2}
н/о н/о +15.4 +11.0 75 +16 +16 1012.9 1006.5
14 10.09 З 1-2
{2}
н/о н/о +15.7 +11.1 74 +16 +16 1012.4 1006.0
15 10.09 штиль 0-1
{2}
н/о н/о +16.4 +12.4 77 +16 +16 1011.9 1005.5
16 10.09 СВ 1-2
{3}
н/о н/о +17.0 +11.5 70 +18 +18 1011.3 1005.0
17 10.09 Ю 1-1
{2}
н/о н/о +15.3 +12.6 84 +16 +16 1011.6 1005.3
18 10.09 В 1-3
{3}
н/о н/о +14.9 +12.0 83 +15 +15 1010.8 1004.4 +9.5 +17.6 0.2
19 10.09 С 2-2
{2}
н/о н/о +14.8 +11.8 82 +14 +14 1010.7 1004.3
20 10.09 В 1-2
{2}
н/о н/о +14.3 +12.0 86 +15 +15 1010.2 1003.8
21 10.09 СЗ 1-1
{2}
н/о н/о +13.8 +12.0 89 +14 +14 1010.1 1003.6
22 10.09 С 1-1
{2}
н/о н/о +13.4 +12.6 95 +13 +13 1009.6 1003.1
23 10.09 штиль 0-1
{1}
н/о н/о +13.0 +12.4 96 +12 +12 1008.9 1002.5
00 11.09 Ю 1-1
{2}
н/о н/о +12.9 +12.4 97 +13 +13 1008.5 1002.0
01 11.09 штиль 0-1
{2}
н/о н/о +12.8 +12.3 97 +12 +12 1007.8 1001.3
02 11.09 В 1-2
{2}
н/о н/о +12.6 +12.1 97 +12 +12 1007.2 1000.7
03 11.09 СЗ 2-3
{4}
н/о н/о +12.8 +12.0 95 +12 +12 1006.0 999.6
04 11.09 СВ 1-3
{3}
н/о н/о +11.9 +11.4 97 +12 +12 1005.0 998.5
05 11.09 СВ 2-3
{4}
н/о н/о +13.3 +10.1 81 +13 +13 1004.1 997.7
06 11.09 В 1-1
{4}
н/о н/о +12.1 +11.2 94 +12 +12 1003.8 997.4 +11.8 +14.9
07 11.09 В 1-2
{3}
н/о н/о +12.9 +8.8 76 +13 +13 1003.8 997.4
08 11.09 В 2-3
{3}
н/о н/о +12.1 +9.0 81 +11 +11 1003.5 997.1
09 11.09 В 2-5
{5}
н/о н/о +11.9 +8.8 81 +11 +11 1002.7 996.3
10 11.09 В 1-3
{6}
н/о н/о +12.5 +9.0 79 +13 +13 1001.6 995.2
11 11.09 В 1-2
{4}
н/о н/о +13.9 +9.6 75 +14 +14 1001.4 995.0
12 11.09 СВ 2-3
{6}
н/о н/о +12.6 +10.2 85 +12 +12 1001.5 995.1 0.9
13 11.09 СВ 2-4
{4}
н/о н/о +12.9 +10.4 85 +12 +12 1001.5 995.2
14 11.09 штиль 0-2
{2}
н/о н/о +13.6 +11.5 87 +13 +13 1001.8 995.5
15 11.09 Ю 2-4
{4}
н/о н/о +15.5 +10.9 74 +15 +15 1001.8 995.5
16 11.09 ЮЗ 2-4
{4}
н/о н/о +14.2 +10.8 80 +14 +14 1002.8 996.5
17 11.09 Ю 1-3
{6}
н/о н/о +12.5 +10.7 89 +12 +12 1003.7 997.3
18 11.09 ЮЗ 1-3
{6}
н/о н/о +12.4 +9.8 84 +12 +12 1004.9 998.4 +11.8 +15.7 2
19 11.09 Ю 1-2
{3}
н/о н/о +11.8 +10.1 89 +12 +12 1005.6 999.2
20 11.09 ЮВ 1-2
{2}
н/о н/о +11.2 +10.7 97 +11 +11 1006.3 999.9
21 11.09 В 1-2
{2}
н/о н/о +11.1 +11.0 99 +11 +11 1006.9 1000.4
22 11.09 штиль 0-1
{1}
н/о н/о +10.9 +10.9 100 +10 +10 1007.4 1000.9
23 11.09 ЮЗ 1-1
{1}
н/о н/о +10.8 +10.8 100 +10 +10 1007.6 1001.2
00 12.09 ЮЗ 1-2
{3}
н/о н/о +10.8 +10.8 100 +10 +10 1008.3 1001.8 2
01 12.09 -2
{3}
н/о н/о +10.7 +10.7 100 1008.9 1002.5
02 12.09 З 1-3
{3}
н/о н/о +10.7 +10.7 100 +10 +10 1009.3 1002.8
03 12.09 ЮЗ 1-2
{3}
н/о н/о +10.5 +10.4 99 +10 +10 1009.7 1003.2
04 12.09 СЗ 1-2
{2}
н/о н/о +10.6 +10.3 98 +10 +10 1009.7 1003.2
05 12.09 С 2-3
{3}
н/о н/о +10.6 +10.1 97 +9 +9 1009.8 1003.3
06 12.09 Ю 1-2
{4}
н/о н/о +11.0 +10.5 97 +11 +11 1010.0 1003.5 +10.3 +12.4 2
07 12.09 Ю 2-4
{4}
н/о н/о +12.0 +10.4 90 +11 +11 1010.6 1004.1
08 12.09 ЮЗ 2-5
{8}
н/о н/о +13.3 +9.2 76 +13 +13 1010.7 1004.3
09 12.09 ЮЗ 2-5
{7}
н/о н/о +13.9 +8.7 71 +13 +13 1011.2 1004.8
10 12.09 З 3-6
{9}
н/о н/о +14.1 +9.7 75 +13 +13 1011.7 1005.3
11 12.09 ЮЗ 2-6
{9}
н/о н/о +13.8 +9.1 73 +13 +13 1012.4 1005.9
12 12.09 ЮЗ 3-7
{9}
н/о н/о +13.1 +9.2 77 +12 +12 1012.6 1006.1 0.5
13 12.09 З 2-4
{8}
н/о н/о +13.6 +9.1 74 +13 +13 1012.6 1006.2
14 12.09 З 3-6
{8}
н/о н/о +14.2 +8.4 68 +13 +13 1012.3 1005.9
15 12.09 ЮЗ 2-4
{8}
н/о н/о +12.1 +9.5 84 +11 +11 1012.6 1006.1
16 12.09 З 3-6
{8}
н/о н/о +13.3 +8.0 70 +12 +12 1012.5 1006.0
17 12.09 ЮЗ 2-3
{9}
н/о н/о +10.6 +8.9 89 +9 +9 1013.1 1006.5
18 12.09 ЮЗ 1
{9}
н/о н/о +10.2 +9.3 94 +10 +10 1012.9 1006.4 +14.4 3
19 12.09 Ю 1-2
{4}
н/о н/о +10.0 +8.9 93 +9 +9 1012.9 1006.4
20 12.09 Ю 1-2
{3}
н/о н/о +9.7 +9.3 97 +9 +9 1013.4 1006.8
21 12.09 ЮЗ 1-1
{5}
н/о н/о +9.6 +9.2 97 +9 +9 1013.7 1007.1
22 12.09 Ю 1-3
{3}
н/о н/о +9.6 +9.2 97 +9 +9 1014.6 1008.0
23 12.09 штиль 0-1
{2}
н/о н/о +9.4 +9.0 97 +8 +8 1015.1 1008.5
00 13.09 ЮЗ 1-3
{5}
н/о н/о +9.2 +8.6 96 +8 +8 1015.9 1009.4 8
01 13.09 ЮЗ 1-2
{2}
н/о н/о +8.6 +8.2 97 +8 +8 1016.6 1010.0
02 13.09 Ю 1-3
{5}
н/о н/о +8.6 +8.0 96 +8 +8 1017.1 1010.5
03 13.09 штиль 0-1
{2}
н/о н/о +7.8 +7.5 98 +7 +7 1017.5 1010.9
04 13.09 СВ 1-2
{2}
н/о н/о +7.2 +7.1 99 +6 +6 1017.9 1011.2
05 13.09 СВ 1-2
{2}
н/о н/о +7.5 +7.5 100 +6 +6 1018.5 1011.9
06 13.09 Ю 1-2
{9}
н/о н/о +7.9 +7.5 97 +7 +7 1019.2 1012.6 +7.0 +10.3 14
07 13.09 ЮВ 1-1
{2}
н/о н/о +8.8 +8.5 98 +8 +8 1019.8 1013.2
08 13.09 ЮЗ 2-4
{4}
н/о н/о +9.2 +8.0 92 +7 +7 1020.4 1013.8
09 13.09 СВ 1-2
{4}
н/о н/о +9.4 +8.5 94 +9 +9 1021.3 1014.7
10 13.09 СВ 2 н/о н/о +10.8 +8.6 86 +9 +9 1021.3 1014.8
11 13.09 Ю 1 н/о н/о +9.2 +8.0 92 +8 +8 1022.3 1015.7
12 13.09 Ю 1
{9}
н/о н/о +9.2 +6.8 85 +9 +9 1022.9 1016.3 5
13 13.09 В 1 н/о н/о +11.3 +8.0 80 +11 +11 1022.4 1015.9
14 13.09 ЮЗ 2 н/о н/о +11.5 +6.6 72 +10 +10 1022.7 1016.1
15 13.09 Ю 1 н/о н/о +8.9 +7.0 88 +8 +8 1023.5 1016.9
16 13.09 Ю 1 н/о н/о +9.9 +7.5 85 +9 +9 1023.6 1017.0
17 13.09 Ю 1 н/о н/о +9.4 +6.5 82 +9 +9 1023.9 1017.3
18 13.09 Ю 1
{10}
н/о н/о +9.5 +6.1 79 +9 +9 1024.4 1017.8 +12.5 9
19 13.09 ЮЗ 2 н/о н/о +9.2 +6.5 83 +8 +8 1025.2 1018.6
20 13.09 СЗ 1 н/о н/о +8.3 +6.6 89 +7 +7 1025.6 1019.0
21 13.09 СВ 1 н/о н/о +7.6 +7.2 97 +7 +7 1025.7 1019.1
22 13.09 С 2 н/о н/о +8.3 +6.9 91 +6 +6 1025.7 1019.0
23 13.09 Ю 2 н/о н/о +8.5 +6.3 86 +7 +7 1026.0 1019.3
00 14.09 Ю 2
{8}
н/о н/о +8.7 +7.0 89 +7 +7 1026.0 1019.4 1
01 14.09 Ю 1-3
{3}
н/о н/о +8.0 +7.3 95 +7 +7 1026.3 1019.6
02 14.09 С 1-2
{3}
н/о н/о +8.0 +7.4 96 +7 +7 1026.1 1019.4
03 14.09 штиль 0 н/о н/о +7.7 +7.4 98 +7 +7 1025.6 1018.9
04 14.09 С 2-2
{2}
н/о н/о +7.8 +7.7 99 +6 +6 1025.4 1018.7
05 14.09 СВ 1-2
{3}
н/о н/о +7.8 +7.7 99 +7 +7 1025.1 1018.5
06 14.09 В 1-1
{3}
н/о н/о +8.1 +8.1 100 +7 +7 1024.8 1018.1 +7.6 +9.7 4
08 14.09 Ю 1-1
{2}
н/о н/о +9.9 +9.0 94 +9 +9 1023.5 1016.9
09 14.09 ЮЗ 1-3
{3}
н/о н/о +11.3 +9.1 86 +11 +11 1022.6 1016.1
10 14.09 Ю 2-3
{3}
н/о н/о +11.2 +7.3 77 +10 +10 1022.1 1015.5
11 14.09 Ю 1-2
{4}
н/о н/о +11.2 +7.7 79 +11 +11 1020.8 1014.3
12 14.09 СВ 1-2
{4}
н/о н/о +11.0 +8.4 84 +11 +11 1019.7 1013.2
13 14.09 ЮЗ 1-2
{2}
н/о н/о +10.5 +8.9 90 +10 +10 1017.9 1011.4
14 14.09 Ю 1-1
{3}
н/о н/о +10.1 +9.8 98 +9 +9 1016.4 1009.9
15 14.09 В 1-3
{3}
н/о н/о +9.5 +8.6 94 +9 +9 1014.5 1008.0
16 14.09 В 2-4
{6}
н/о н/о +9.6 +8.7 94 +8 +8 1012.3 1005.8
17 14.09 В 2-6
{11}
н/о н/о +9.8 +9.0 95 +8 +8 1010.1 1003.6
18 14.09 В 3-7
{11}
н/о н/о +10.2 +9.4 95 +8 +8 1007.7 1001.2 +7.9 +12.8 14
19 14.09 СВ 2-4
{4}
н/о н/о +10.4 +10.0 97 +9 +9 1006.8 1000.3
20 14.09 С 2-3
{4}
н/о н/о +10.3 +10.2 99 +9 +9 1005.1 998.6
21 14.09 ЮЗ 3-9
{9}
н/о н/о +10.8 +10.2 96 +9 +9 1005.4 999.0
22 14.09 Ю 1-2
{8}
н/о н/о +10.0 +9.1 94 +9 +9 1004.1 997.6
23 14.09 СЗ 2-5
{5}
н/о н/о +10.2 +9.4 95 +9 +9 1003.2 996.7
00 15.09 ЮЗ 2-7
{9}
н/о н/о +10.3 +6.8 79 +9 +9 1002.5 996.0 21
01 15.09 ЮЗ 1-3
{8}
н/о н/о +9.9 +6.1 77 +10 +10 1001.3 994.8
02 15.09 Ю 2-5
{9}
н/о н/о +9.9 +5.5 74 +8 +8 1000.6 994.2
03 15.09 Ю 2-4
{11}
н/о н/о +8.5 +5.3 80 +7 +7 1001.0 994.5
04 15.09 ЮЗ 2-6
{6}
н/о н/о +8.1 +5.2 82 +6 +6 1000.4 993.9
05 15.09 ЮЗ 4-11
{11}
н/о н/о +9.1 +5.3 77 +6 +6 1000.4 993.9
06 15.09 ЮЗ 2-5
{11}
н/о н/о +8.7 +5.5 80 +7 +7 999.7 993.2 +7.9 +11.2 25
07 15.09 Ю 2-3
{6}
н/о н/о +7.6 +5.8 88 +5 +5 999.1 992.6
08 15.09 ЮВ 1-4
{4}
н/о н/о +7.6 +6.9 95 +7 +7 998.3 991.9
09 15.09 Ю 1-3
{3}
н/о н/о +8.2 +7.6 96 +7 +7 997.5 991.0
10 15.09 ЮЗ 2-6
{6}
н/о н/о +10.6 +7.7 82 +9 +9 997.3 990.9
11 15.09 ЮЗ 3-8
{11}
н/о н/о +10.3 +7.9 85 +8 +8 997.8 991.4
12 15.09 ЮЗ 3-9
{11}
н/о н/о +10.7 +8.3 85 +9 +9 998.5 992.1 9
13 15.09 З 4-10
{10}
н/о н/о +11.4 +8.1 80 +9 +9 999.2 992.8
14 15.09 З 4-8
{11}
н/о н/о +10.9 +8.3 84 +8 +8 1000.1 993.7
15 15.09 З 5-10
{12}
н/о н/о +10.5 +7.7 83 +8 +8 1001.2 994.8
16 15.09 З 6-11
{14}
н/о н/о +10.0 +7.3 83 +7 +7 1001.9 995.5
17 15.09 З 6-14
{14}
н/о н/о +10.3 +7.4 82 +7 +7 1002.8 996.3
18 15.09 З 5-10
{14}
н/о н/о +10.0 +6.7 80 +7 +7 1004.4 997.9 +7.4 +11.4 17
19 15.09 ЮЗ 4-9
{14}
н/о н/о +9.4 +6.1 80 +7 +7 1006.5 1000.0
20 15.09 Ю 2-5
{9}
н/о н/о +9.5 +5.3 75 +8 +8 1007.6 1001.1
21 15.09 Ю 3-8
{8}
н/о н/о +8.9 +4.5 74 +7 +7 1009.2 1002.7
22 15.09 ЮЗ 2-5
{8}
н/о н/о +7.4 +4.9 84 +5 +5 1010.0 1003.4
23 15.09 СВ 1-1
{4}
н/о н/о +6.6 +4.8 88 +6 +6 1010.1 1003.5
00 16.09 Ю 1-2
{14}
н/о н/о +7.8 +4.6 80 +7 +7 1009.9 1003.3 2
01 16.09 Ю 1-4
{4}
н/о н/о +8.4 +4.4 76 +8 +8 1010.1 1003.6
02 16.09 ЮЗ 2-5
{5}
н/о н/о +7.9 +4.0 76 +6 +6 1010.6 1004.1
03 16.09 СВ 1-1
{5}
н/о н/о +6.5 +3.5 81 +6 +6 1010.7 1004.1
04 16.09 СВ 1-1
{1}
н/о н/о +4.5 +3.8 95 +3 +3 1010.9 1004.3
05 16.09 В 1-2
{2}
н/о н/о +4.3 +4.0 98 +3 +3 1010.8 1004.1
06 16.09 штиль 0-1
{5}
н/о н/о +4.9 +4.9 100 +4 +4 1011.0 1004.4 +3.7 +10.4 2
07 16.09 Ю 1-2
{6}
н/о н/о +7.1 +4.9 86 +6 +6 1011.3 1004.7
08 16.09 Ю 1-2
{3}
н/о н/о +9.6 +5.4 75 +9 +9 1011.6 1005.1
09 16.09 Ю 1-2
{2}
н/о н/о +9.9 +5.5 74 +10 +10 1011.1 1004.6
10 16.09 ЮЗ 2-3
{5}
н/о н/о +9.8 +5.2 73 +8 +8 1011.1 1004.5
11 16.09 ЮЗ 1-3
{3}
н/о н/о +9.3 +6.6 83 +9 +9 1010.9 1004.4
12 16.09 Ю 1-2
{6}
н/о н/о +8.3 +6.1 86 +8 +8 1010.7 1004.2 3
13 16.09 СЗ 1-2
{2}
н/о н/о +7.9 +6.5 91 +7 +7 1010.5 1004.0
14 16.09 ЮЗ 1-2
{2}
н/о н/о +7.6 +6.4 92 +7 +7 1010.2 1003.7
15 16.09 З 1-1
{2}
н/о н/о +8.0 +7.3 95 +7 +7 1009.5 1002.9
16 16.09 штиль 0
{1}
н/о н/о +8.0 +6.9 93 +7 +7 1009.1 1002.5
17 16.09 ЮВ 1-1
{2}
н/о н/о +7.5 +7.1 97 +6 +6 1008.2 1001.7
18 16.09 ЮЗ 2-4
{4}
н/о н/о +7.4 +7.3 99 +5 +5 1008.5 1002.0 +4.9 +10.2 10
19 16.09 штиль 0-1
{3}
н/о н/о +5.8 +5.4 97 +5 +5 1007.8 1001.2
20 16.09 СВ 1-2
{2}
н/о н/о +5.6 +5.2 97 +4 +4 1007.4 1000.8
21 16.09 З 3-5
{5}
н/о н/о +6.1 +4.4 89 +3 +3 1007.7 1001.1
22 16.09 В 1-1
{4}
н/о н/о +5.2 +4.6 96 +4 +4 1007.4 1000.8
23 16.09 З 1-2
{2}
н/о н/о +4.6 +4.5 99 +3 +3 1007.5 1000.9
00 17.09 СВ 1-2
{5}
н/о н/о +4.2 +3.8 97 +3 +3 1007.1 1000.5 8
01 17.09 ЮЗ 1-3
{3}
н/о н/о +3.4 +2.8 96 +2 +2 1006.8 1000.2

 

Местоположение метеостанции Воссеванген (Норвегия): широта 60.63 долгота 6.43 высота над уровнем моря 54 м.

В архиве по умолчанию представлена погода в Воссевангене за последнюю неделю. Архивные данные за месяц целиком и за предыдущие месяцы, начиная с января 2011 года, Вы можете получить, выбрав интересующий диапазон дат из раскрывающегося списка и нажав кнопку "Ввод!".


*Определитесь, кто Вы:
робот инопланетянин человек

Внимание! Время в таблицах - всемирное. Для получения местного времени необходимо прибавить поправку, которая равна 1 ч.

Смотрите также архив погоды в соседних городах и на ближайших метеорологических станциях:

Погода в Булкене (Норвегия) (12 км)
Погода в Эванжере (Норвегия) (18 км)
Погода в Мьолфелле (Норвегия) (29 км)
Погода на Квамсое (Норвегия) (32 км)
Погода в Модалене (Норвегия) (36 км)
Погода в Улленсванге (Норвегия) (37 км)
Погода в Квамскогене (Норвегия) (38 км)
Погода в Фоссмарке (Норвегия) (41 км)
Погода в Клеваватнете (Норвегия) (44 км)
Погода в Мидтстове (Норвегия) (46 км)

Пояснения к столбцам:

Ветер - указаны скорость ветра в м/с - средняя за 10 мин, порывы в срок и между сроками (в фигурных скобках) и направление, откуда дует ветер: С - северный, СВ - северо-восточный, В - восточный, ЮВ - юго-восточный, Ю - южный, ЮЗ - юго-западный, З - западный, СЗ - северо-западный.
Видимость - горизонтальная дальность видимости в метрах или километрах. При видимости от 1 до 10 км при отсутствии осадков обычно наблюдается дымка, при ухудшении видимости до 1 км и менее - туман. В сухую погоду видимость может ухудшаться дымом, пылью или мглою.
Явления - указаны атмосферные явления, наблюдавшиеся в срок или в последний час перед сроком; фигурными скобками обозначены явления, наблюдавшиеся между сроками (за 1-3 часа до срока); квадратными скобками обозначены град или гололедные отложения с указанием их диаметра в мм.
Облачность - указаны через наклонную черту общая и нижняя облачность в баллах и высота нижней границы облаков в метрах; квадратными скобками обозначены формы облаков: Ci - перистые, Cs - перисто-слоистые, Cc - перисто-кучевые, Ac - высококучевые, As - высокослоистые, Sc - слоисто-кучевые, Ns - слоисто-дождевые, Cu - кучевые, Cb - кучево-дождевые. Подробнее классификацию облаков см. в Атласе облаков (PDF).
T - Температура воздуха - температура, измеренная на высоте 2 м над землей.
Td - Температура точки росы - температура, при понижении до которой содержащийся в воздухе водяной пар достигнет насыщения.
f - Относительная влажность воздуха - влажноcть воздуха, измеренная на высоте 2 м над землей.
Te - Эффективная температура - температура, которую ощущает одетый по сезону человек в тени. Характеристика душности погоды. При расчете учитывается влияние влажности воздуха и скорости ветра на теплоощущения человека.
Tes - Эффективная температура на солнце - температура, которую ощущает человек, с поправкой на солнечный нагрев. Характеристика знойности погоды. Зависит от высоты солнца над горизонтом, облачности и скорости ветра. Ночью, в пасмурную погоду, а также при ветре 12 м/с и более поправка равна нулю.
P - Атмосферное давление - приведенное к уровню моря атмосферное давление.
Po - Атмосферное давление - измеренное на уровне метеостанции атмосферное давление.
Tmin - Минимальная температура - минимум температуры воздуха на высоте 2 м над землей.
Tmax - Максимальная температура - максимум температуры воздуха на высоте 2 м над землей.
R - Количество осадков - Количество выпавших осадков за период времени, мм. При наведении курсора мыши на число - период времени, за который выпало указанное количество осадков.
R24 - Количество осадков - Количество выпавших осадков за 24 часа, мм.
S - Снежный покров - Высота снежного покрова, см. При наведении курсора мыши на число - состояние снежного покрова и степень покрытия местности в баллах.